Terminal Aerodrome Forecast
Issued by NWS

Home | Current Version | Previous Version | Graphics & Text | Print | Product List | Glossary On
Versions: 1 2 3 4 5 6 7 8 9 10 11 12 13 14 15 16 17 18 19 20 21 22 23 24 25 26 27 28 29 30
000
FTUS43 KABR 262327
TAFATY
TAF
KATY 262327Z 2700/2724 35004KT P6SM FEW019 OVC100
     FM270500 VRB03KT 2SM BR OVC010
     FM271600 VRB03KT P6SM BKN015
     FM271800 VRB03KT P6SM BKN035=

USA.gov is the U.S. government's official web portal to all federal, state and local government web resources and services.